Weather History for Peoria, IL

Change the Weather History Date:

Monday, January 21, 2013

  Actual Average Record
Temperature  
Mean Temperature 10 °F 25 °F  
Max Temperature 16 °F 33 °F 62 °F (1957)
Min Temperature 4 °F 17 °F -19 °F (1883)
Degree Days  
Heating Degree Days 55 40  
Month to date heating degree days 782 840  
Since 1 July heating degree days 2928 3118  
Cooling Degree Days 0 0  
Month to date cooling degree days 0 0  
Year to date cooling degree days 0 0  
Moisture  
Dew Point -2 °F    
Average Humidity 59    
Maximum Humidity 76    
Minimum Humidity 42    
Precipitation  
Precipitation T in 0.05 in 0.94 in (1958)
Month to date precipitation 1.56 1.26  
Year to date precipitation 1.56 1.26  
Snow  
Snow T in 0.20 in 8.00 in (1958)
Month to date snowfall 0.2 4.7  
Since 1 July snowfall 3.4 12.9  
Snow Depth T in    
Sea Level Pressure  
Sea Level Pressure 30.33 in    
Wind  
Wind Speed 13 mph (WNW)    
Max Wind Speed 22 mph    
Max Gust Speed 30 mph    
Visibility 10 miles    
Events Snow    
T = Trace of Precipitation, MM = Missing Value Source: NWS Daily Summary

Daily Weather History Graph

Daily Weather History Graph

Search for Another Location

Airport:

Trip Planner

Search our weather history database for the weather conditions in past years. The results will help you decide how hot, cold, wet, or windy it might be!

Date:

Astronomy

Jan. 21, 2013 Rise Set
Actual Time 7:17 AM CST 5:03 PM CST
Civil Twilight 6:47 AM CST 5:33 PM CST
Nautical Twilight 6:14 AM CST 6:06 PM CST
Astronomical Twilight 5:41 AM CST 6:39 PM CST
Moon 12:43 PM CST (1/21) 2:45 AM CST (1/21)
Length of Visible Light 10h 45m
Length of Day
9h 46m
Waxing Gibbous, 75% of the Moon is Illuminated
Jan 21
Waxing Gibbous
Jan 26
Full
Feb 3
Last Quarter
Feb 10
New
Feb 17
First Quarter

Hourly Weather History & Observations

Time (CST) Temp. Windchill Dew Point Humidity Pressure Visibility Wind Dir Wind Speed Gust Speed Precip Events Conditions
12:54 AM 15.1 °F 1.8 °F 8.1 °F 74% 30.30 in 9.0 mi WNW 11.5 mph 18.4 mph 0.00 in Snow Light Snow
1:54 AM 12.9 °F -3.9 °F 6.1 °F 74% 30.30 in 4.0 mi West 17.3 mph 26.5 mph 0.00 in Snow Light Snow
2:54 AM 12.0 °F -1.3 °F 5.0 °F 73% 30.29 in 8.0 mi WNW 10.4 mph - 0.00 in Snow Light Snow
3:04 AM 12.2 °F -1.0 °F 5.0 °F 73% 30.25 in 10.0 mi WNW 10.4 mph 23.0 mph N/A   Scattered Clouds
3:30 AM 12.0 °F -2.7 °F 3.9 °F 70% 30.24 in 10.0 mi WNW 12.7 mph 20.7 mph 0.00 in   Mostly Cloudy
3:54 AM 10.9 °F -4.1 °F 3.9 °F 73% 30.28 in 10.0 mi WNW 12.7 mph - 0.00 in   Mostly Cloudy
4:54 AM 10.0 °F -5.9 °F 3.0 °F 73% 30.28 in 10.0 mi WNW 13.8 mph 21.9 mph 0.00 in   Mostly Cloudy
5:04 AM 10.0 °F -6.5 °F 1.9 °F 70% 30.24 in 10.0 mi West 15.0 mph 25.3 mph N/A   Scattered Clouds
5:54 AM 10.0 °F -5.9 °F 1.9 °F 70% 30.29 in 10.0 mi WNW 13.8 mph 21.9 mph N/A   Clear
6:54 AM 8.1 °F -10.2 °F -2.0 °F 64% 30.31 in 10.0 mi WNW 17.3 mph 27.6 mph N/A   Clear
7:36 AM 7.0 °F -9.1 °F -2.0 °F 67% 30.27 in 10.0 mi WNW 12.7 mph 24.2 mph N/A   Mostly Cloudy
7:54 AM 7.0 °F -9.8 °F -2.0 °F 67% 30.31 in 10.0 mi WNW 13.8 mph 25.3 mph N/A   Overcast
8:54 AM 7.0 °F -9.8 °F -2.0 °F 67% 30.33 in 9.0 mi WNW 13.8 mph 26.5 mph 0.00 in   Mostly Cloudy
9:46 AM 7.0 °F -9.8 °F -5.1 °F 58% 30.31 in 9.0 mi WNW 13.8 mph 24.2 mph 0.00 in   Mostly Cloudy
9:54 AM 8.1 °F -10.7 °F -6.0 °F 53% 30.35 in 10.0 mi WNW 18.4 mph 26.5 mph 0.00 in   Partly Cloudy
10:54 AM 8.1 °F -9.6 °F -8.0 °F 48% 30.36 in 10.0 mi NW 16.1 mph 26.5 mph N/A   Clear
11:54 AM 9.0 °F -7.9 °F -7.1 °F 48% 30.35 in 10.0 mi NW 15.0 mph 26.5 mph N/A   Clear
12:54 PM 10.9 °F -5.4 °F -6.0 °F 47% 30.34 in 10.0 mi WNW 15.0 mph 24.2 mph N/A   Partly Cloudy
1:54 PM 10.9 °F -1.8 °F -6.0 °F 47% 30.33 in 10.0 mi NW 9.2 mph 20.7 mph N/A   Clear
2:54 PM 12.0 °F -4.5 °F -8.0 °F 41% 30.35 in 10.0 mi WNW 16.1 mph 25.3 mph N/A   Clear
3:54 PM 12.0 °F -2.0 °F -6.0 °F 44% 30.35 in 10.0 mi WNW 11.5 mph 21.9 mph N/A   Clear
4:54 PM 8.6 °F -5.5 °F -5.8 °F 52% 30.30 in 10.0 mi WNW 10.4 mph 17.3 mph N/A   Clear
5:54 PM 7.0 °F -7.5 °F -5.1 °F 58% 30.36 in 10.0 mi WNW 10.4 mph - N/A   Clear
6:54 PM 6.1 °F -8.7 °F -4.0 °F 63% 30.38 in 10.0 mi West 10.4 mph - N/A   Clear
7:54 PM 5.0 °F -10.8 °F -5.1 °F 63% 30.39 in 10.0 mi West 11.5 mph 23.0 mph N/A   Clear
8:54 PM 5.0 °F -8.1 °F -5.1 °F 63% 30.40 in 10.0 mi WNW 8.1 mph - N/A   Clear
9:54 PM 5.0 °F -8.1 °F -4.0 °F 66% 30.40 in 10.0 mi WNW 8.1 mph - N/A   Clear
10:54 PM 5.0 °F -8.1 °F -4.0 °F 66% 30.41 in 10.0 mi WNW 8.1 mph - N/A   Clear
11:54 PM 3.9 °F -8.2 °F -4.0 °F 70% 30.40 in 10.0 mi West 6.9 mph - N/A   Clear